Weather History for Plymouth, NH

Change the Weather History Date:

Sunday, July 29, 2012

  Actual Average (KLCI) Record (KLCI)
Temperature  
Mean Temperature 68 °F -  
Max Temperature 73 °F 81 °F 89 °F (1983)
Min Temperature 64 °F 60 °F 47 °F (1987)
Cooling Degree Days 4    
Growing Degree Days 18 (Base 50)    
Moisture  
Dew Point 64 °F    
Average Humidity 92    
Maximum Humidity 98    
Minimum Humidity 68    
Precipitation  
Precipitation 0.27 in - - ()
Sea Level Pressure  
Sea Level Pressure 30.03 in    
Wind  
Wind Speed 0 mph (NNW)    
Max Wind Speed 8 mph    
Max Gust Speed 17 mph    
Visibility 7 miles    
Events Fog , Rain , Thunderstorm    
Averages and records for this station are not official NWS values.
T = Trace of Precipitation, MM = Missing Value Source: NWS Daily Summary

Daily Weather History Graph

Daily Weather History Graph

Search for Another Location

Airport:

Trip Planner

Search our weather history database for the weather conditions in past years. The results will help you decide how hot, cold, wet, or windy it might be!

Date:

Astronomy

Jul. 29, 2012 Rise Set
Actual Time 5:33 AM EDT 8:13 PM EDT
Civil Twilight 4:59 AM EDT 8:46 PM EDT
Nautical Twilight 4:18 AM EDT 9:27 PM EDT
Astronomical Twilight 3:30 AM EDT 10:15 PM EDT
Moon 5:18 PM EDT (7/29) 1:42 AM EDT (7/29)
Length of Visible Light 15h 46m
Length of Day
14h 40m
Waxing Gibbous, 85% of the Moon is Illuminated
Jul 29
Waxing Gibbous
Aug 1
Full
Aug 9
Last Quarter
Aug 17
New
Aug 24
First Quarter

Hourly Weather History & Observations

Time (EDT) Temp. Dew Point Humidity Pressure Visibility Wind Dir Wind Speed Gust Speed Precip Events Conditions
12:35 AM 65.3 °F 64.4 °F 97% 30.00 in 0.8 mi Calm Calm - N/A   Overcast
12:55 AM 65.3 °F 64.4 °F 97% 30.01 in 1.5 mi Calm Calm - N/A   Overcast
1:15 AM 65.3 °F 64.4 °F 97% 30.00 in 4.0 mi Calm Calm - N/A   Overcast
1:35 AM 65.3 °F 64.4 °F 97% 30.00 in 4.0 mi Calm Calm - N/A   Overcast
1:55 AM 65.3 °F 64.4 °F 97% 29.99 in 4.0 mi Calm Calm - N/A   Overcast
2:15 AM 64.9 °F 64.0 °F 97% 29.99 in 5.0 mi Calm Calm - N/A   Overcast
2:35 AM 65.1 °F 64.4 °F 98% 29.99 in 5.0 mi Calm Calm - N/A   Overcast
2:55 AM 64.9 °F 64.0 °F 97% 29.99 in 7.0 mi Calm Calm - N/A   Overcast
3:15 AM 64.8 °F 63.9 °F 97% 29.99 in 5.0 mi Calm Calm - N/A   Overcast
3:35 AM 64.4 °F 63.5 °F 97% 29.98 in 5.0 mi Calm Calm - N/A   Overcast
3:55 AM 64.4 °F 63.5 °F 97% 29.98 in 5.0 mi Calm Calm - N/A   Overcast
4:15 AM 64.4 °F 63.7 °F 98% 29.98 in 4.0 mi Calm Calm - N/A   Overcast
4:35 AM 64.6 °F 63.7 °F 97% 29.99 in 5.0 mi NW 3.5 mph - N/A   Overcast
4:55 AM 64.4 °F 63.5 °F 97% 29.98 in 7.0 mi NW 3.5 mph - N/A   Overcast
5:15 AM 64.4 °F 63.5 °F 97% 29.98 in 7.0 mi North 3.5 mph - N/A   Overcast
5:35 AM 64.0 °F 63.1 °F 97% 29.99 in 10.0 mi Calm Calm - N/A Rain Light Rain
5:55 AM 64.0 °F 63.0 °F 96% 30.00 in 7.0 mi Calm Calm - N/A Rain Light Rain
6:15 AM 64.4 °F 63.1 °F 96% 30.01 in 5.0 mi Calm Calm - 0.01 in Rain Light Rain
6:35 AM 64.4 °F 63.1 °F 96% 30.01 in 5.0 mi Calm Calm - 0.02 in Rain Light Rain
6:55 AM 64.4 °F 63.3 °F 96% 30.02 in 5.0 mi Calm Calm - 0.03 in Rain Light Rain
7:15 AM 64.4 °F 63.1 °F 96% 30.03 in 5.0 mi Calm Calm - 0.01 in Rain Light Rain
7:35 AM 64.4 °F 63.5 °F 97% 30.02 in 7.0 mi Calm Calm - 0.01 in   Light Drizzle
7:55 AM 64.6 °F 63.5 °F 96% 30.03 in 7.0 mi Calm Calm - 0.01 in   Overcast
8:15 AM 65.3 °F 63.7 °F 94% 30.03 in 10.0 mi Calm Calm - N/A   Mostly Cloudy
8:35 AM 65.3 °F 63.5 °F 94% 30.03 in 10.0 mi Calm Calm - N/A   Overcast
8:55 AM 66.0 °F 63.7 °F 92% 30.03 in 10.0 mi Calm Calm - N/A   Mostly Cloudy
9:15 AM 66.2 °F 63.7 °F 92% 30.03 in 10.0 mi Calm Calm - N/A   Overcast
9:35 AM 65.8 °F 63.7 °F 93% 30.03 in 10.0 mi Calm Calm - N/A   Overcast
9:55 AM 65.8 °F 63.9 °F 93% 30.04 in 10.0 mi Calm Calm - N/A   Overcast
10:15 AM 66.4 °F 64.4 °F 93% 30.04 in 10.0 mi Calm Calm - N/A   Overcast
10:35 AM 66.9 °F 64.2 °F 91% 30.04 in 10.0 mi Calm Calm - N/A   Overcast
10:55 AM 67.3 °F 64.2 °F 90% 30.04 in 10.0 mi Calm Calm - N/A   Overcast
11:15 AM 68.0 °F 64.0 °F 87% 30.04 in 10.0 mi Calm Calm - N/A   Overcast
11:35 AM 69.3 °F 64.6 °F 85% 30.04 in 10.0 mi Calm Calm - N/A   Overcast
11:55 AM 70.3 °F 64.6 °F 82% 30.04 in 10.0 mi Calm Calm - N/A   Mostly Cloudy
12:15 PM 70.7 °F 64.0 °F 79% 30.03 in 10.0 mi Calm Calm - N/A   Overcast
12:35 PM 71.1 °F 63.7 °F 77% 30.03 in 10.0 mi Calm Calm - N/A   Overcast
12:55 PM 70.7 °F 63.1 °F 77% 30.03 in 10.0 mi Calm Calm - N/A Rain Light Rain
1:15 PM 71.2 °F 63.1 °F 75% 30.02 in 7.0 mi Calm Calm - N/A Rain Light Rain
1:35 PM 72.1 °F 64.2 °F 76% 30.02 in 10.0 mi Calm Calm - N/A   Overcast
1:55 PM 73.4 °F 62.8 °F 69% 30.01 in 10.0 mi Calm Calm - N/A   Overcast
2:15 PM 73.8 °F 62.8 °F 68% 30.02 in 10.0 mi Calm Calm - N/A   Overcast
2:35 PM 69.1 °F 63.0 °F 81% 30.03 in 10.0 mi East 8.1 mph 17.3 mph N/A Rain Light Rain
2:55 PM 66.2 °F 63.3 °F 90% 30.04 in 5.0 mi Calm Calm - 0.05 in Rain , Thunderstorm Light Thunderstorms and Rain
3:15 PM 66.2 °F 63.9 °F 92% 30.04 in 1.5 mi Calm Calm - 0.13 in Rain Rain
3:35 PM 66.2 °F 64.0 °F 93% 30.04 in 10.0 mi Calm Calm - 0.14 in Rain Light Rain
3:55 PM 66.2 °F 64.2 °F 93% 30.04 in 3.0 mi Calm Calm - 0.16 in Rain Rain
4:15 PM 65.8 °F 63.5 °F 92% 30.04 in 7.0 mi Calm Calm - 0.02 in Rain , Thunderstorm Light Thunderstorms and Rain
4:35 PM 66.2 °F 63.7 °F 92% 30.04 in 10.0 mi Calm Calm - 0.02 in Rain Light Rain
5:15 PM 66.7 °F 64.0 °F 91% 30.04 in 10.0 mi Calm Calm - N/A   Overcast
5:35 PM 67.1 °F 64.0 °F 90% 30.04 in 10.0 mi Calm Calm - N/A   Overcast
5:55 PM 67.3 °F 64.2 °F 90% 30.04 in 10.0 mi Calm Calm - N/A   Mostly Cloudy
6:15 PM 67.6 °F 63.7 °F 87% 30.04 in 10.0 mi Calm Calm - N/A   Mostly Cloudy
6:35 PM 67.5 °F 63.9 °F 88% 30.04 in 10.0 mi Calm Calm - N/A   Scattered Clouds
6:55 PM 67.1 °F 64.4 °F 91% 30.05 in 10.0 mi Calm Calm - N/A   Clear
7:15 PM 67.5 °F 64.8 °F 91% 30.06 in 10.0 mi Calm Calm - N/A   Clear
7:35 PM 67.1 °F 64.6 °F 92% 30.07 in 10.0 mi Calm Calm - N/A   Clear
7:55 PM 66.6 °F 64.4 °F 93% 30.07 in 10.0 mi Calm Calm - N/A   Scattered Clouds
8:15 PM 65.5 °F 63.9 °F 94% 30.07 in 2.5 mi Calm Calm - N/A   Scattered Clouds
8:35 PM 64.8 °F 63.7 °F 96% 30.08 in 0.5 mi Calm Calm - N/A Fog Fog
8:55 PM 64.4 °F 63.5 °F 97% 30.08 in 1.0 mi Calm Calm - N/A   Overcast
9:15 PM 64.4 °F 63.5 °F 97% 30.08 in 1.0 mi Calm Calm - N/A   Overcast
9:35 PM 64.4 °F 63.5 °F 97% 30.08 in 1.0 mi Calm Calm - N/A   Overcast
9:55 PM 64.6 °F 63.7 °F 97% 30.08 in 0.5 mi Calm Calm - N/A Fog Fog
10:35 PM 64.4 °F 63.5 °F 97% 30.08 in 5.0 mi Calm Calm - N/A   Overcast
10:55 PM 64.4 °F 63.5 °F 97% 30.09 in 5.0 mi Calm Calm - N/A   Overcast
11:35 PM 64.4 °F 63.5 °F 97% 30.08 in 7.0 mi Calm Calm - N/A   Overcast
11:55 PM 64.2 °F 63.3 °F 97% 30.08 in 5.0 mi Calm Calm - N/A   Overcast